| time (UTC) | temp C | wind direction | speed KPH | gust KPH | rain 1hr cm | rain 24hr cm | rain mn cm | humidity % | barometer mb |
| 20260505000015 | 22 | 301 | 3.2 | 4.8 | 0.00 | 0.00 | 0.00 | 32 | 1012.5 |
| 20260504235511 | 22 | 307 | 4.8 | 8.0 | 0.00 | 0.00 | 0.00 | 30 | 1012.1 |
| 20260504235008 | 22 | 293 | 1.6 | 3.2 | 0.00 | 0.00 | 0.00 | 30 | 1011.5 |
| 20260504234505 | 22 | 301 | 3.2 | 4.8 | 0.00 | 0.00 | 0.00 | 30 | 1011.7 |
| 20260504234002 | 22 | 299 | 4.8 | 8.0 | 0.00 | 0.00 | 0.00 | 30 | 1011.9 |
| 20260504233457 | 23 | 319 | 9.7 | 11.3 | 0.00 | 0.00 | 0.00 | 29 | 1012.0 |
| 20260504232954 | 23 | 342 | 4.8 | 4.8 | 0.00 | 0.00 | 0.00 | 29 | 1012.2 |
| 20260504232451 | 23 | 253 | 9.7 | 14.5 | 0.00 | 0.00 | 0.00 | 28 | 1012.4 |
| 20260504231949 | 23 | 298 | 11.3 | 12.9 | 0.00 | 0.00 | 0.00 | 28 | 1012.5 |
| 20260504231445 | 24 | 295 | 8.0 | 8.0 | 0.00 | 0.00 | 0.00 | 27 | 1012.6 |
| 20260504230941 | 25 | 308 | 8.0 | 9.7 | 0.00 | 0.00 | 0.00 | 23 | 1012.1 |
| 20260504230438 | 25 | 272 | 9.7 | 12.9 | 0.00 | 0.00 | 0.00 | 23 | 1012.1 |
| 20260504225937 | 25 | 309 | 6.4 | 14.5 | 0.00 | 0.00 | 0.00 | 22 | 1011.8 |
| 20260504225433 | 25 | 255 | 4.8 | 4.8 | 0.00 | 0.00 | 0.00 | 22 | 1011.8 |
| 20260504224931 | 25 | 280 | 6.4 | 8.0 | 0.00 | 0.00 | 0.00 | 21 | 1011.7 |
| 20260504224427 | 26 | 292 | 9.7 | 12.9 | 0.00 | 0.00 | 0.00 | 21 | 1011.7 |
| 20260504223924 | 26 | 282 | 11.3 | 16.1 | 0.00 | 0.00 | 0.00 | 20 | 1011.5 |
| 20260504223420 | 26 | 283 | 8.0 | 11.3 | 0.00 | 0.00 | 0.00 | 19 | 1011.8 |
| 20260504222916 | 26 | 280 | 8.0 | 9.7 | 0.00 | 0.00 | 0.00 | 19 | 1011.7 |
| 20260504222414 | 26 | 324 | 4.8 | 4.8 | 0.00 | 0.00 | 0.00 | 20 | 1011.6 |
| 20260504221911 | 26 | 341 | 8.0 | 11.3 | 0.00 | 0.00 | 0.00 | 19 | 1011.7 |
| 20260504221408 | 26 | 319 | 3.2 | 3.2 | 0.00 | 0.00 | 0.00 | 19 | 1011.5 |
| 20260504220905 | 26 | 312 | 8.0 | 9.7 | 0.00 | 0.00 | 0.00 | 18 | 1011.7 |
| 20260504220402 | 26 | 304 | 4.8 | 4.8 | 0.00 | 0.00 | 0.00 | 18 | 1011.7 |
| 20260504215859 | 27 | 303 | 8.0 | 11.3 | 0.00 | 0.00 | 0.00 | 18 | 1011.6 |
| 20260504215355 | 27 | 289 | 6.4 | 9.7 | 0.00 | 0.00 | 0.00 | 18 | 1011.8 |
| 20260504214851 | 27 | 270 | 14.5 | 16.1 | 0.00 | 0.00 | 0.00 | 18 | 1011.6 |
| 20260504214348 | 27 | 6 | 4.8 | 4.8 | 0.00 | 0.00 | 0.00 | 19 | 1011.6 |
| 20260504213845 | 27 | 277 | 4.8 | 8.0 | 0.00 | 0.00 | 0.00 | 18 | 1011.4 |
| 20260504213341 | 27 | 294 | 8.0 | 11.3 | 0.00 | 0.00 | 0.00 | 18 | 1011.4 |
| 20260504212838 | 28 | 294 | 4.8 | 4.8 | 0.00 | 0.00 | 0.00 | 19 | 1011.4 |
| 20260504212334 | 28 | 308 | 4.8 | 4.8 | 0.00 | 0.00 | 0.00 | 17 | 1011.5 |
| 20260504211832 | 28 | 312 | 3.2 | 4.8 | 0.00 | 0.00 | 0.00 | 17 | 1011.5 |
| 20260504211328 | 28 | 310 | 1.6 | 3.2 | 0.00 | 0.00 | 0.00 | 16 | 1011.4 |
| 20260504210826 | 28 | 253 | 3.2 | 4.8 | 0.00 | 0.00 | 0.00 | 16 | 1011.4 |
| 20260504210323 | 28 | 295 | 4.8 | 8.0 | 0.00 | 0.00 | 0.00 | 16 | 1011.7 |
| 20260504205820 | 28 | 247 | 8.0 | 9.7 | 0.00 | 0.00 | 0.00 | 16 | 1011.6 |
| 20260504205317 | 28 | 296 | 8.0 | 11.3 | 0.00 | 0.00 | 0.00 | 16 | 1011.7 |
| 20260504204815 | 28 | 260 | 4.8 | 4.8 | 0.00 | 0.00 | 0.00 | 16 | 1011.5 |
| 20260504204314 | 28 | 265 | 3.2 | 3.2 | 0.00 | 0.00 | 0.00 | 16 | 1011.5 |
| 20260504203813 | 28 | 260 | 6.4 | 8.0 | 0.00 | 0.00 | 0.00 | 16 | 1011.6 |
| 20260504203309 | 28 | 276 | 4.8 | 3.2 | 0.00 | 0.00 | 0.00 | 16 | 1011.6 |
| 20260504202804 | 28 | 209 | 6.4 | 8.0 | 0.00 | 0.00 | 0.00 | 15 | 1011.9 |
| 20260504202304 | 28 | 244 | 3.2 | 8.0 | 0.00 | 0.00 | 0.00 | 17 | 1011.8 |
| 20260504201759 | 28 | 284 | 4.8 | 4.8 | 0.00 | 0.00 | 0.00 | 17 | 1011.8 |
| 20260504201256 | 28 | 257 | 4.8 | 4.8 | 0.00 | 0.00 | 0.00 | 17 | 1011.8 |
| 20260504200754 | 28 | 251 | 1.6 | 3.2 | 0.00 | 0.00 | 0.00 | 18 | 1012.1 |
| 20260504200249 | 28 | 212 | 3.2 | 3.2 | 0.00 | 0.00 | 0.00 | 17 | 1011.9 |
| 20260504195746 | 28 | 216 | 4.8 | 4.8 | 0.00 | 0.00 | 0.00 | 17 | 1011.9 |
| 20260504195242 | 28 | 262 | 3.2 | 3.2 | 0.00 | 0.00 | 0.00 | 18 | 1011.9 |
| 20260504194739 | 27 | 359 | 1.6 | 1.6 | 0.00 | 0.00 | 0.00 | 18 | 1011.9 |
| 20260504194235 | 27 | 273 | 4.8 | 8.0 | 0.00 | 0.00 | 0.00 | 18 | 1011.8 |
| 20260504193732 | 27 | 1 | 1.6 | 1.6 | 0.00 | 0.00 | 0.00 | 20 | 1011.9 |
| 20260504193229 | 27 | 248 | 1.6 | 1.6 | 0.00 | 0.00 | 0.00 | 19 | 1012.1 |
| 20260504192727 | 27 | 350 | 3.2 | 3.2 | 0.00 | 0.00 | 0.00 | 20 | 1012.1 |
| 20260504192225 | 27 | 82 | 0.0 | 0.0 | 0.00 | 0.00 | 0.00 | 20 | 1011.9 |
| 20260504191724 | 27 | 142 | 4.8 | 4.8 | 0.00 | 0.00 | 0.00 | 20 | 1012.1 |
| 20260504191220 | 27 | 207 | 4.8 | 8.0 | 0.00 | 0.00 | 0.00 | 20 | 1012.1 |
| 20260504190715 | 27 | 149 | 0.0 | 0.0 | 0.00 | 0.00 | 0.00 | 20 | 1012.4 |
| 20260504190212 | 26 | 203 | 3.2 | 3.2 | 0.00 | 0.00 | 0.00 | 21 | 1012.0 |
| 20260504185709 | 26 | 296 | 6.4 | 9.7 | 0.00 | 0.00 | 0.00 | 21 | 1012.1 |
| 20260504185206 | 27 | 239 | 4.8 | 3.2 | 0.00 | 0.00 | 0.00 | 21 | 1012.4 |
| 20260504184702 | 26 | 251 | 4.8 | 8.0 | 0.00 | 0.00 | 0.00 | 21 | 1012.6 |
| 20260504184157 | 26 | 344 | 1.6 | 1.6 | 0.00 | 0.00 | 0.00 | 22 | 1012.4 |
| 20260504183654 | 26 | 296 | 3.2 | 3.2 | 0.00 | 0.00 | 0.00 | 23 | 1012.6 |
| 20260504183151 | 26 | 68 | 1.6 | 1.6 | 0.00 | 0.00 | 0.00 | 22 | 1012.6 |
| 20260504182649 | 26 | 163 | 4.8 | 4.8 | 0.00 | 0.00 | 0.00 | 22 | 1012.6 |
| 20260504182146 | 26 | 212 | 4.8 | 4.8 | 0.00 | 0.00 | 0.00 | 22 | 1012.9 |
| 20260504181643 | 26 | 259 | 3.2 | 3.2 | 0.00 | 0.00 | 0.00 | 22 | 1012.6 |
| 20260504181141 | 26 | 274 | 6.4 | 11.3 | 0.00 | 0.00 | 0.00 | 22 | 1013.0 |
| 20260504180640 | 26 | 215 | 8.0 | 11.3 | 0.00 | 0.00 | 0.00 | 22 | 1012.9 |
| 20260504180138 | 26 | 141 | 0.0 | 0.0 | 0.00 | 0.00 | 0.00 | 22 | 1012.8 |
| 20260504175635 | 26 | 206 | 4.8 | 8.0 | 0.00 | 0.00 | 0.00 | 23 | 1013.0 |
| 20260504175131 | 26 | 202 | 3.2 | 4.8 | 0.00 | 0.00 | 0.00 | 22 | 1013.1 |
| 20260504174630 | 25 | 166 | 1.6 | 1.6 | 0.00 | 0.00 | 0.00 | 23 | 1013.1 |
| 20260504174126 | 25 | 207 | 6.4 | 8.0 | 0.00 | 0.00 | 0.00 | 23 | 1013.4 |
| 20260504173623 | 25 | 184 | 6.4 | 4.8 | 0.00 | 0.00 | 0.00 | 23 | 1013.0 |
| 20260504173121 | 25 | 191 | 3.2 | 3.2 | 0.00 | 0.00 | 0.00 | 23 | 1013.0 |
| 20260504172617 | 25 | 245 | 6.4 | 8.0 | 0.00 | 0.00 | 0.00 | 23 | 1013.0 |
| 20260504172114 | 25 | 221 | 3.2 | 3.2 | 0.00 | 0.00 | 0.00 | 24 | 1013.2 |
| 20260504171610 | 25 | 193 | 6.4 | 8.0 | 0.00 | 0.00 | 0.00 | 24 | 1013.2 |
| 20260504171108 | 25 | 227 | 6.4 | 8.0 | 0.00 | 0.00 | 0.00 | 23 | 1013.2 |
| 20260504170603 | 25 | 260 | 14.5 | 16.1 | 0.00 | 0.00 | 0.00 | 23 | 1013.0 |
| 20260504150947 | 23 | 196 | 4.8 | 4.8 | 0.00 | 0.00 | 0.00 | 29 | 1013.0 |
| 20260504150443 | 24 | 136 | 1.6 | 3.2 | 0.00 | 0.00 | 0.00 | 29 | 1013.2 |
| 20260504140910 | 22 | 8 | 0.0 | 0.0 | 0.00 | 0.00 | 0.00 | 33 | 1012.6 |
| 20260504140406 | 22 | 7 | 0.0 | 0.0 | 0.00 | 0.00 | 0.00 | 33 | 1012.9 |
| 20260504130331 | 20 | 309 | 0.0 | 0.0 | 0.00 | 0.00 | 0.00 | 36 | 1012.0 |
| 20260504120254 | 20 | 54 | 0.0 | 0.0 | 0.00 | 0.00 | 0.00 | 37 | 1011.5 |
| 20260504110218 | 20 | 251 | 0.0 | 0.0 | 0.00 | 0.00 | 0.00 | 37 | 1011.7 |
| 20260504100142 | 21 | 309 | 0.0 | 0.0 | 0.00 | 0.00 | 0.00 | 35 | 1011.5 |
| 20260504090105 | 20 | 69 | 0.0 | 0.0 | 0.00 | 0.00 | 0.00 | 35 | 1011.2 |
| 20260504081535 | 20 | 69 | 0.0 | 0.0 | 0.00 | 0.00 | 0.00 | 33 | 1011.0 |
| 20260504081031 | 20 | 69 | 0.0 | 0.0 | 0.00 | 0.00 | 0.00 | 32 | 1011.5 |
| 20260504080527 | 20 | 69 | 1.6 | 1.6 | 0.00 | 0.00 | 0.00 | 32 | 1011.4 |
| 20260504050340 | 23 | 187 | 1.6 | 1.6 | 0.00 | 0.00 | 0.00 | 25 | 1011.9 |
| 20260504045837 | 23 | 39 | 0.0 | 0.0 | 0.00 | 0.00 | 0.00 | 25 | 1011.8 |
| 20260504045332 | 23 | 24 | 0.0 | 0.0 | 0.00 | 0.00 | 0.00 | 25 | 1011.9 |
| 20260504044829 | 23 | 347 | 0.0 | 0.0 | 0.00 | 0.00 | 0.00 | 25 | 1011.9 |
| 20260504044326 | 23 | 317 | 0.0 | 0.0 | 0.00 | 0.00 | 0.00 | 24 | 1012.0 |
| 20260504043824 | 23 | 316 | 0.0 | 0.0 | 0.00 | 0.00 | 0.00 | 24 | 1012.1 |
| 20260504043321 | 23 | 317 | 0.0 | 0.0 | 0.00 | 0.00 | 0.00 | 24 | 1012.2 |
| 20260504042818 | 24 | 317 | 1.6 | 3.2 | 0.00 | 0.00 | 0.00 | 24 | 1012.0 |
| 20260504042314 | 24 | 274 | 0.0 | 0.0 | 0.00 | 0.00 | 0.00 | 23 | 1011.7 |
| 20260504041811 | 24 | 288 | 1.6 | 1.6 | 0.00 | 0.00 | 0.00 | 23 | 1011.8 |
| 20260504041307 | 24 | 294 | 3.2 | 3.2 | 0.00 | 0.00 | 0.00 | 23 | 1011.8 |
| 20260504040803 | 25 | 227 | 1.6 | 1.6 | 0.00 | 0.00 | 0.00 | 22 | 1011.8 |
| 20260504040301 | 25 | 286 | 1.6 | 1.6 | 0.00 | 0.00 | 0.00 | 22 | 1011.4 |
| 20260504035756 | 25 | 269 | 1.6 | 1.6 | 0.00 | 0.00 | 0.00 | 22 | 1011.4 |
| 20260504035254 | 25 | 245 | 4.8 | 8.0 | 0.00 | 0.00 | 0.00 | 21 | 1011.1 |
| 20260504034751 | 25 | 279 | 3.2 | 3.2 | 0.00 | 0.00 | 0.00 | 21 | 1011.2 |
| 20260504034248 | 25 | 267 | 1.6 | 1.6 | 0.00 | 0.00 | 0.00 | 21 | 1010.9 |
| 20260504033746 | 25 | 265 | 6.4 | 9.7 | 0.00 | 0.00 | 0.00 | 20 | 1010.9 |
| 20260504033243 | 25 | 266 | 3.2 | 3.2 | 0.00 | 0.00 | 0.00 | 20 | 1011.0 |
| 20260504032740 | 25 | 298 | 3.2 | 3.2 | 0.00 | 0.00 | 0.00 | 20 | 1010.7 |
| 20260504032237 | 25 | 275 | 4.8 | 14.5 | 0.00 | 0.00 | 0.00 | 20 | 1010.5 |
| 20260504031734 | 26 | 259 | 1.6 | 1.6 | 0.00 | 0.00 | 0.00 | 19 | 1010.5 |
| 20260504031231 | 26 | 246 | 11.3 | 12.9 | 0.00 | 0.00 | 0.00 | 19 | 1010.5 |
| 20260504030727 | 26 | 296 | 4.8 | 4.8 | 0.00 | 0.00 | 0.00 | 18 | 1010.2 |
| 20260504030225 | 26 | 280 | 3.2 | 4.8 | 0.00 | 0.00 | 0.00 | 18 | 1010.0 |
| 20260504025721 | 26 | 267 | 6.4 | 11.3 | 0.00 | 0.00 | 0.00 | 18 | 1010.2 |
| 20260504025218 | 26 | 281 | 1.6 | 1.6 | 0.00 | 0.00 | 0.00 | 17 | 1009.8 |
| 20260504024715 | 26 | 250 | 6.4 | 9.7 | 0.00 | 0.00 | 0.00 | 16 | 1009.8 |
| 20260504024211 | 27 | 287 | 1.6 | 1.6 | 0.00 | 0.00 | 0.00 | 17 | 1009.9 |
| 20260504023708 | 27 | 249 | 4.8 | 4.8 | 0.00 | 0.00 | 0.00 | 16 | 1009.6 |
| 20260504023204 | 27 | 295 | 4.8 | 8.0 | 0.00 | 0.00 | 0.00 | 16 | 1009.3 |
| 20260504022700 | 27 | 262 | 1.6 | 1.6 | 0.00 | 0.00 | 0.00 | 16 | 1009.1 |
| 20260504022156 | 27 | 279 | 6.4 | 8.0 | 0.00 | 0.00 | 0.00 | 15 | 1009.2 |
| 20260504021654 | 27 | 261 | 3.2 | 3.2 | 0.00 | 0.00 | 0.00 | 15 | 1009.2 |
| 20260504021150 | 27 | 285 | 12.9 | 14.5 | 0.00 | 0.00 | 0.00 | 14 | 1009.2 |
| 20260504020648 | 28 | 267 | 6.4 | 8.0 | 0.00 | 0.00 | 0.00 | 14 | 1009.1 |
| 20260504020143 | 28 | 251 | 6.4 | 9.7 | 0.00 | 0.00 | 0.00 | 14 | 1008.7 |
| 20260504015641 | 28 | 288 | 4.8 | 8.0 | 0.00 | 0.00 | 0.00 | 13 | 1008.5 |
| 20260504015137 | 28 | 319 | 4.8 | 8.0 | 0.00 | 0.00 | 0.00 | 13 | 1008.7 |
| 20260504014632 | 28 | 268 | 8.0 | 11.3 | 0.00 | 0.00 | 0.00 | 12 | 1008.7 |
| 20260504014130 | 28 | 271 | 6.4 | 9.7 | 0.00 | 0.00 | 0.00 | 12 | 1008.6 |
| 20260504013628 | 28 | 261 | 3.2 | 4.8 | 0.00 | 0.00 | 0.00 | 12 | 1008.6 |
| 20260504013124 | 29 | 261 | 9.7 | 11.3 | 0.00 | 0.00 | 0.00 | 12 | 1008.5 |
| 20260504012621 | 30 | 245 | 14.5 | 17.7 | 0.00 | 0.00 | 0.00 | 11 | 1008.5 |
| 20260504012120 | 30 | 280 | 6.4 | 9.7 | 0.00 | 0.00 | 0.00 | 12 | 1008.3 |
| 20260504011616 | 30 | 262 | 11.3 | 17.7 | 0.00 | 0.00 | 0.00 | 12 | 1008.4 |
| 20260504011112 | 30 | 250 | 8.0 | 11.3 | 0.00 | 0.00 | 0.00 | 12 | 1008.5 |
| 20260504010608 | 30 | 222 | 11.3 | 16.1 | 0.00 | 0.00 | 0.00 | 12 | 1008.9 |
| 20260504010104 | 30 | 259 | 14.5 | 17.7 | 0.00 | 0.00 | 0.00 | 12 | 1008.6 |
| 20260504005601 | 30 | 256 | 12.9 | 14.5 | 0.00 | 0.00 | 0.00 | 11 | 1008.9 |
| 20260504005058 | 30 | 246 | 12.9 | 16.1 | 0.00 | 0.00 | 0.00 | 11 | 1008.8 |
| 20260504004556 | 30 | 253 | 17.7 | 24.1 | 0.00 | 0.00 | 0.00 | 11 | 1009.0 |
| 20260504004053 | 30 | 227 | 11.3 | 12.9 | 0.00 | 0.00 | 0.00 | 11 | 1008.7 |
| 20260504003549 | 30 | 283 | 11.3 | 12.9 | 0.00 | 0.00 | 0.00 | 11 | 1008.7 |
| 20260504003046 | 30 | 249 | 11.3 | 16.1 | 0.00 | 0.00 | 0.00 | 12 | 1008.8 |
| 20260504002543 | 31 | 300 | 14.5 | 16.1 | 0.00 | 0.00 | 0.00 | 12 | 1008.7 |
| 20260504002041 | 31 | 284 | 12.9 | 22.5 | 0.00 | 0.00 | 0.00 | 12 | 1008.6 |
| 20260504001538 | 31 | 239 | 19.3 | 22.5 | 0.00 | 0.00 | 0.00 | 12 | 1008.7 |
| 20260504001034 | 31 | 237 | 16.1 | 17.7 | 0.00 | 0.00 | 0.00 | 12 | 1008.6 |
| 20260504000531 | 31 | 216 | 17.7 | 22.5 | 0.00 | 0.00 | 0.00 | 12 | 1008.5 |